Regional Weather Roundup
Issued by NWS Sterling, VA

Home | Current Version | Previous Version | Graphics & Text | Print | Product List | Glossary On
Versions: 1 2 3 4 5 6 7 8 9 10 11 12 13 14 15 16 17 18 19 20 21 22 23 24 25 26 27
000
ASUS41 KLWX 191011
RWRLWX

REGIONAL WEATHER ROUNDUP
NATIONAL WEATHER SERVICE BALTIMORE MD/WASHINGTON DC
500 AM EST THU JAN 19 2017

Note: "FAIR" indicates few or no clouds below 12,000 feet
with no significant weather and/or obstructions to visibility.
 TC=TEMPERATURE CELSIUS

 * =Non NWS site. Station does not report precipitation (e.g. rain,
    snow, etc.), thunder, or fog.

DCZ001-MDZ009-015-VAZ040>042-051-053>054-191100-
WASHINGTON METRO

CITY           SKY/WX    TMP DP  RH WIND       PRES   REMARKS
WASHINGTON NAT CLOUDY    43  36  76 NW9       30.08S
DULLES         CLOUDY    45  34  65 N8        30.07S
ANDREWS AFB    PTCLDY    42  34  74 NW6       30.06S
FT BELVOIR     CLOUDY    37  33  85 CALM      30.07S
QUANTICO       MOCLDY    38  36  92 N5        30.09S
COLLEGE PARK*  CLOUDY    43  34  70 NW6       30.07S
LEESBURG*      CLOUDY    46  39  76 N3        30.07F
GAITHERSBURG*  CLOUDY    43  32  65 NW3       30.10F

$$

MDZ006>007-011-014-191100-
BALTIMORE METRO

CITY           SKY/WX    TMP DP  RH WIND       PRES   REMARKS
BWI AIRPORT    CLOUDY    44  36  73 NW9       30.07S
MD SCIENCE CTR   N/A     47  34  60 MISG      30.07S
ANNAPOLIS      CLOUDY    46  36  68 NW5       30.06F
FORT MEADE*    CLOUDY    43  34  70 NW3       30.09S

$$

MDZ012-015-019>023-191100-
MARYLAND EASTERN SHORE

CITY           SKY/WX    TMP DP  RH WIND       PRES   REMARKS
OCEAN CITY     CLOUDY    42  41  96 NW3       30.06R
SALISBURY      CLOUDY    45  39  79 N7        30.06R
BAY BRIDGE AP* CLOUDY    45  36  70 NW5       30.07S
CAMBRIDGE*     CLOUDY    43  36  75 NW6       30.06S
EASTON*        CLOUDY    46  37  70 N5        30.10F

$$

MDZ017>025-191100-
SOUTHERN MARYLAND

CITY           SKY/WX    TMP DP  RH WIND       PRES   REMARKS
PATUXENT RIVER PTCLDY    43  37  79 NW8       30.06S
ST INIGOES     CLOUDY    40  35  83 CALM      30.06S
LEONARDTOWN*   PTCLDY    41  34  75 CALM      30.08S

$$

MDZ003>005-191100-
NORTH CENTRAL MARYLAND

CITY           SKY/WX    TMP DP  RH WIND       PRES   REMARKS
FREDERICK*     CLOUDY    43  36  75 NW5       30.10S
HAGERSTOWN APT CLOUDY    42  34  73 W5        30.05F
WESTMINSTER*   NOT AVBL

$$

MDZ501>502-191100-
WESTERN MARYLAND

CITY           SKY/WX    TMP DP  RH WIND       PRES   REMARKS
OAKLAND*       FOG       32  32 100 W7        30.02S VSB<1/4
CUMBERLAND*    CLOUDY    43  36  75 W7        30.11S

$$

VAZ025>031-191100-
SHENANDOAH VALLEY

CITY           SKY/WX    TMP DP  RH WIND       PRES   REMARKS
WINCHESTER*    CLOUDY    41  34  75 W3        30.06F
FRONT ROYAL*   CLOUDY    36  34  93 CALM      30.06F
LURAY*         CLOUDY    32  32 100 CALM      30.07S
NEW MARKET*    CLOUDY    29  28  94 CALM      30.06F
STAUNTON*      CLOUDY    29  29  97 CALM      30.09R
WAYNESBORO*    CLOUDY    38  34  84 W3        30.06S

$$

WVZ021-048>050-054>055-191100-
EASTERN WEST VIRGINIA PANHANDLE

CITY           SKY/WX    TMP DP  RH WIND       PRES   REMARKS
MARTINSBURG    CLOUDY    44  34  67 CALM      30.06F
PETERSBURG*    CLOUDY    31  30  98 CALM      30.09S FOG

$$

VAZ036>039-050-191100-
CENTRAL FOOTHILLS

CITY           SKY/WX    TMP DP  RH WIND       PRES   REMARKS
CHARLOTTESVILL CLOUDY    37  34  89 CALM      30.06F
CULPEPER*      CLOUDY    30  30  98 CALM      30.09S
ORANGE*          N/A     32  32 100 CALM      30.09S
GORDONSVILLE*  CLOUDY    30  30 100 CALM      30.06F
WARRENTON*     CLOUDY    30  27  89 CALM      30.07F

$$

VAZ055>057-191100-
NORTH AND CENTRAL PIEDMONT

CITY           SKY/WX    TMP DP  RH WIND       PRES   REMARKS
FREDERICKSBRG* MOCLDY    35  35 100 CALM      30.08S
STAFFORD*      CLOUDY    32  32 100 CALM      30.12S

$$

NCZ024-NYZ072-PAZ021-071-VAZ022-071-191100-
OTHER REGIONAL OBSERVATIONS

CITY           SKY/WX    TMP DP  RH WIND       PRES   REMARKS
NEW YORK CITY  CLOUDY    41  36  82 CALM      30.04F
PHILADELPHIA   CLOUDY    45  37  73 NW5       30.06S
PITTSBURGH     CLOUDY    38  36  92 SW6       30.07S
ROANOKE        CLOUDY    40  35  83 N6        30.09F
RICHMOND       CLOUDY    39  35  86 N6        30.07F
RALEIGH        PTCLDY    39  35  86 CALM      30.07R

$$

ANZ530>537-191100-
MARINE OBSERVATIONS

STATION/POSITION TIME  TEMP    WIND        PRES
                       AIR SEA DIR/SP/G
                 (UTC) (F)     (DEG/KT/KT) (MB)
THOMAS PT LIGHT  1000   45 39  320/  6/  6   N/A
BALT KEY BRIDGE  0942   44     310/  8/ 10 1018.1F
COVE POINT       0942   44     350/ 14/ 15 1018.6F
LEWISETTA        0948   43 43  340/  6/  9 1017.8S
SOLOMONS ISLAND  0942   44 41  320/  4/  6   N/A
PINEY POINT      0948          330/  7/  8   N/A

$$





USA.gov is the U.S. government's official web portal to all federal, state and local government web resources and services.